Time,TemperatureF,DewpointF,PressureIn,WindDirection,WindDirectionDegrees,WindSpeedMPH,WindSpeedGustMPH,Humidity,HourlyPrecipIn,Conditions,Clouds,dailyrainin,SolarRadiationWatts/m^2,SoftwareType,DateUTC
2013-04-11 00:00:00,63.8,56.8,29.83,West,281,1.0,1.0,78,0.00,,,0.00,0,Wunderground v.1.15,2013-04-11 04:00:00,
2013-04-11 00:20:00,63.0,56.0,29.83,SE,140,1.0,2.0,78,0.00,,,0.00,0,Wunderground v.1.15,2013-04-11 04:20:00,
2013-04-11 00:30:00,62.2,55.6,29.83,ESE,114,2.0,2.0,79,0.00,,,0.00,0,Wunderground v.1.15,2013-04-11 04:30:00,
2013-04-11 00:50:00,60.9,55.0,29.82,ESE,114,1.0,1.0,81,0.00,,,0.00,0,Wunderground v.1.15,2013-04-11 04:50:00,
2013-04-11 01:00:00,60.4,54.9,29.82,ESE,114,0.0,1.0,82,0.00,,,0.00,0,Wunderground v.1.15,2013-04-11 05:00:00,
2013-04-11 01:20:00,59.6,54.1,29.81,East,91,0.0,0.0,82,0.00,,,0.00,0,Wunderground v.1.15,2013-04-11 05:20:00,
2013-04-11 01:30:00,59.3,53.8,29.81,East,91,0.0,0.0,82,0.00,,,0.00,0,Wunderground v.1.15,2013-04-11 05:30:00,
2013-04-11 01:50:00,58.3,52.8,29.82,East,91,0.0,0.0,82,0.00,,,0.00,0,Wunderground v.1.15,2013-04-11 05:50:00,
2013-04-11 02:00:00,57.6,52.5,29.82,East,91,0.0,0.0,83,0.00,,,0.00,0,Wunderground v.1.15,2013-04-11 06:00:00,
2013-04-11 02:11:00,56.9,52.1,29.82,East,91,0.0,0.0,84,0.00,,,0.00,0,Wunderground v.1.15,2013-04-11 06:11:00,
2013-04-11 02:20:00,56.3,51.5,29.82,East,91,0.0,0.0,84,0.00,,,0.00,0,Wunderground v.1.15,2013-04-11 06:20:00,
2013-04-11 02:30:00,55.8,51.4,29.82,East,91,0.0,0.0,85,0.00,,,0.00,0,Wunderground v.1.15,2013-04-11 06:30:00,
2013-04-11 02:50:00,55.1,50.7,29.81,East,91,0.0,0.0,85,0.00,,,0.00,0,Wunderground v.1.15,2013-04-11 06:50:00,
2013-04-11 03:00:00,54.8,50.7,29.81,East,91,0.0,0.0,86,0.00,,,0.00,0,Wunderground v.1.15,2013-04-11 07:00:00,
2013-04-11 03:20:00,54.2,50.1,29.80,East,91,0.0,0.0,86,0.00,,,0.00,0,Wunderground v.1.15,2013-04-11 07:20:00,
2013-04-11 03:30:00,53.9,49.8,29.79,East,91,0.0,0.0,86,0.00,,,0.00,0,Wunderground v.1.15,2013-04-11 07:30:00,
2013-04-11 03:50:00,53.4,49.3,29.79,East,91,0.0,0.0,86,0.00,,,0.00,0,Wunderground v.1.15,2013-04-11 07:50:00,
2013-04-11 04:00:00,53.1,49.0,29.80,East,91,0.0,0.0,86,0.00,,,0.00,0,Wunderground v.1.15,2013-04-11 08:00:00,
2013-04-11 04:20:00,52.6,48.8,29.79,East,91,0.0,0.0,87,0.00,,,0.00,0,Wunderground v.1.15,2013-04-11 08:20:00,
2013-04-11 04:30:00,52.7,49.2,29.79,East,91,0.0,0.0,88,0.00,,,0.00,0,Wunderground v.1.15,2013-04-11 08:30:00,
2013-04-11 04:50:00,52.6,49.1,29.80,East,91,0.0,0.0,88,0.00,,,0.00,0,Wunderground v.1.15,2013-04-11 08:50:00,
2013-04-11 05:00:00,52.4,48.9,29.80,East,91,0.0,0.0,88,0.00,,,0.00,0,Wunderground v.1.15,2013-04-11 09:00:00,
2013-04-11 05:20:00,52.4,48.9,29.79,East,91,0.0,0.0,88,0.00,,,0.00,0,Wunderground v.1.15,2013-04-11 09:20:00,
2013-04-11 05:30:00,52.4,48.9,29.79,East,91,0.0,0.0,88,0.00,,,0.00,0,Wunderground v.1.15,2013-04-11 09:30:00,
2013-04-11 05:50:00,52.4,49.3,29.79,East,91,0.0,0.0,89,0.00,,,0.00,0,Wunderground v.1.15,2013-04-11 09:50:00,
2013-04-11 06:00:00,52.4,49.3,29.79,East,91,0.0,0.0,89,0.00,,,0.00,0,Wunderground v.1.15,2013-04-11 10:00:00,
2013-04-11 06:20:00,52.2,49.1,29.79,East,91,0.0,0.0,89,0.00,,,0.00,0,Wunderground v.1.15,2013-04-11 10:20:00,
2013-04-11 06:30:00,52.1,49.0,29.79,East,91,0.0,0.0,89,0.00,,,0.00,0,Wunderground v.1.15,2013-04-11 10:30:00,
2013-04-11 06:50:00,52.1,49.0,29.80,East,91,0.0,0.0,89,0.00,,,0.00,0,Wunderground v.1.15,2013-04-11 10:50:00,
2013-04-11 07:00:00,52.2,49.1,29.80,East,91,0.0,0.0,89,0.00,,,0.00,0,Wunderground v.1.15,2013-04-11 11:00:00,
2013-04-11 07:11:00,52.4,49.3,29.80,East,91,0.0,0.0,89,0.00,,,0.00,11,Wunderground v.1.15,2013-04-11 11:11:00,
2013-04-11 07:20:00,52.6,49.4,29.80,East,91,0.0,0.0,89,0.00,,,0.00,14,Wunderground v.1.15,2013-04-11 11:20:00,
2013-04-11 07:30:00,52.7,49.5,29.80,East,91,0.0,0.0,89,0.00,,,0.00,25,Wunderground v.1.15,2013-04-11 11:30:00,
2013-04-11 07:50:00,52.8,49.6,29.81,East,91,0.0,0.0,89,0.00,,,0.00,49,Wunderground v.1.15,2013-04-11 11:50:00,
2013-04-11 08:00:00,53.0,50.1,29.81,East,91,0.0,0.0,90,0.00,,,0.00,67,Wunderground v.1.15,2013-04-11 12:00:00,
2013-04-11 08:20:00,54.0,51.1,29.81,East,91,0.0,0.0,90,0.00,,,0.00,72,Wunderground v.1.15,2013-04-11 12:20:00,
2013-04-11 08:30:00,54.6,51.7,29.81,East,91,0.0,0.0,90,0.00,,,0.00,95,Wunderground v.1.15,2013-04-11 12:30:00,
2013-04-11 08:50:00,56.0,53.1,29.81,East,91,0.0,0.0,90,0.00,,,0.00,128,Wunderground v.1.15,2013-04-11 12:50:00,
2013-04-11 09:00:00,56.7,53.8,29.81,East,91,0.0,0.0,90,0.00,,,0.00,188,Wunderground v.1.15,2013-04-11 13:00:00,
2013-04-11 09:20:00,59.5,56.3,29.81,East,91,0.0,0.0,89,0.00,,,0.00,257,Wunderground v.1.15,2013-04-11 13:20:00,
2013-04-11 09:30:00,62.1,58.2,29.81,NNW,338,1.0,1.0,87,0.00,,,0.00,309,Wunderground v.1.15,2013-04-11 13:30:00,
2013-04-11 09:50:00,67.7,61.0,29.80,NNE,24,1.0,1.0,79,0.00,,,0.00,290,Wunderground v.1.15,2013-04-11 13:50:00,
2013-04-11 10:00:00,70.5,60.6,29.80,WNW,299,1.0,1.0,71,0.00,,,0.00,232,Wunderground v.1.15,2013-04-11 14:00:00,
2013-04-11 10:20:00,75.1,61.2,29.80,NNE,17,3.0,4.0,62,0.00,,,0.00,373,Wunderground v.1.15,2013-04-11 14:20:00,
2013-04-11 10:30:00,76.4,62.0,29.79,North,5,2.0,2.0,61,0.00,,,0.00,427,Wunderground v.1.15,2013-04-11 14:30:00,
2013-04-11 10:50:00,78.4,62.9,29.80,NNW,345,1.0,1.0,59,0.00,,,0.00,403,Wunderground v.1.15,2013-04-11 14:50:00,
2013-04-11 11:00:00,78.8,62.8,29.80,East,84,2.0,7.0,58,0.00,,,0.00,439,Wunderground v.1.15,2013-04-11 15:00:00,
2013-04-11 11:20:00,79.4,62.3,29.79,South,180,3.0,5.0,56,0.00,,,0.00,332,Wunderground v.1.15,2013-04-11 15:20:00,
2013-04-11 11:30:00,79.6,62.5,29.79,NW,313,2.0,4.0,56,0.00,,,0.00,731,Wunderground v.1.15,2013-04-11 15:30:00,
2013-04-11 11:50:00,80.0,62.9,29.78,NE,46,4.0,4.0,56,0.00,,,0.00,366,Wunderground v.1.15,2013-04-11 15:50:00,
2013-04-11 12:00:00,80.1,63.5,29.77,North,5,2.0,2.0,57,0.00,,,0.00,659,Wunderground v.1.15,2013-04-11 16:00:00,
2013-04-11 12:20:00,81.6,62.8,29.77,NNW,333,3.0,3.0,53,0.00,,,0.00,522,Wunderground v.1.15,2013-04-11 16:20:00,
2013-04-11 12:30:00,81.4,62.6,29.77,NW,316,3.0,3.0,53,0.00,,,0.00,499,Wunderground v.1.15,2013-04-11 16:30:00,
2013-04-11 12:50:00,81.2,62.4,29.76,NNW,337,2.0,2.0,53,0.00,,,0.00,385,Wunderground v.1.15,2013-04-11 16:50:00,
2013-04-11 13:00:00,81.0,62.8,29.76,NE,45,2.0,2.0,54,0.00,,,0.00,367,Wunderground v.1.15,2013-04-11 17:00:00,
2013-04-11 13:20:00,80.6,61.9,29.75,NNW,332,2.0,2.0,53,0.00,,,0.00,439,Wunderground v.1.15,2013-04-11 17:20:00,
2013-04-11 13:30:00,80.7,62.0,29.75,North,355,2.0,2.0,53,0.00,,,0.00,311,Wunderground v.1.15,2013-04-11 17:30:00,
2013-04-11 13:50:00,80.7,62.0,29.74,NW,315,2.0,3.0,53,0.00,,,0.00,399,Wunderground v.1.15,2013-04-11 17:50:00,
2013-04-11 14:00:00,80.9,61.6,29.73,NW,317,1.0,1.0,52,0.00,,,0.00,422,Wunderground v.1.15,2013-04-11 18:00:00,
2013-04-11 14:20:00,81.1,63.4,29.71,WNW,301,2.0,2.0,55,0.00,,,0.00,362,Wunderground v.1.15,2013-04-11 18:20:00,
2013-04-11 14:30:00,81.2,62.4,29.71,WNW,300,1.0,1.0,53,0.00,,,0.00,288,Wunderground v.1.15,2013-04-11 18:30:00,
2013-04-11 14:50:00,80.7,62.0,29.70,ENE,70,1.0,1.0,53,0.00,,,0.00,278,Wunderground v.1.15,2013-04-11 18:50:00,
2013-04-11 15:00:00,80.8,61.5,29.70,NW,325,0.0,3.0,52,0.00,,,0.00,287,Wunderground v.1.15,2013-04-11 19:00:00,
2013-04-11 15:20:00,80.8,60.4,29.68,NW,304,2.0,3.0,50,0.00,,,0.00,357,Wunderground v.1.15,2013-04-11 19:20:00,
2013-04-11 15:30:00,81.7,61.2,29.67,WSW,255,2.0,3.0,50,0.00,,,0.00,550,Wunderground v.1.15,2013-04-11 19:30:00,
2013-04-11 15:50:00,82.3,61.2,29.66,NW,312,2.0,2.0,49,0.00,,,0.00,417,Wunderground v.1.15,2013-04-11 19:50:00,
2013-04-11 16:00:00,82.9,61.8,29.65,WNW,299,1.0,2.0,49,0.00,,,0.00,670,Wunderground v.1.15,2013-04-11 20:00:00,
2013-04-11 16:20:00,83.4,61.7,29.64,SSE,160,2.0,2.0,48,0.00,,,0.00,269,Wunderground v.1.15,2013-04-11 20:20:00,
2013-04-11 16:30:00,83.4,61.1,29.63,SSE,165,1.0,1.0,47,0.00,,,0.00,450,Wunderground v.1.15,2013-04-11 20:30:00,
2013-04-11 16:50:00,82.8,61.7,29.62,NW,319,1.0,1.0,49,0.00,,,0.00,253,Wunderground v.1.15,2013-04-11 20:50:00,
2013-04-11 17:00:00,82.7,61.0,29.61,NW,319,0.0,0.0,48,0.00,,,0.00,418,Wunderground v.1.15,2013-04-11 21:00:00,
2013-04-11 17:20:00,83.2,61.5,29.60,NE,42,2.0,2.0,48,0.00,,,0.00,202,Wunderground v.1.15,2013-04-11 21:20:00,
2013-04-11 17:30:00,83.0,60.7,29.60,SE,136,0.0,2.0,47,0.00,,,0.00,281,Wunderground v.1.15,2013-04-11 21:30:00,
2013-04-11 17:50:00,83.2,60.3,29.60,ENE,59,1.0,1.0,46,0.00,,,0.00,172,Wunderground v.1.15,2013-04-11 21:50:00,
2013-04-11 18:00:00,83.2,59.6,29.60,East,80,0.0,0.0,45,0.00,,,0.00,116,Wunderground v.1.15,2013-04-11 22:00:00,
2013-04-11 18:20:00,82.8,59.3,29.59,SE,134,1.0,1.0,45,0.00,,,0.00,90,Wunderground v.1.15,2013-04-11 22:20:00,
2013-04-11 18:30:00,82.4,60.1,29.59,NE,39,1.0,1.0,47,0.00,,,0.00,74,Wunderground v.1.15,2013-04-11 22:30:00,
2013-04-11 18:50:00,81.2,63.0,29.58,NE,39,0.0,0.0,54,0.00,,,0.00,83,Wunderground v.1.15,2013-04-11 22:50:00,
2013-04-11 19:00:00,80.0,63.4,29.58,NE,39,0.0,0.0,57,0.00,,,0.00,70,Wunderground v.1.15,2013-04-11 23:00:00,
2013-04-11 19:20:00,78.0,63.0,29.58,NE,39,0.0,0.0,60,0.00,,,0.00,23,Wunderground v.1.15,2013-04-11 23:20:00,
2013-04-11 19:30:00,76.9,62.9,29.58,NE,39,0.0,0.0,62,0.00,,,0.00,16,Wunderground v.1.15,2013-04-11 23:30:00,
2013-04-11 19:35:00,75.9,62.4,29.57,NE,39,0.0,0.0,63,0.00,,,0.00,14,Wunderground v.1.15,2013-04-11 23:35:00,
2013-04-11 19:40:00,74.9,61.5,29.57,NE,39,0.0,0.0,63,0.00,,,0.00,11,Wunderground v.1.15,2013-04-11 23:40:00,
2013-04-11 19:50:00,72.9,60.0,29.55,NE,44,1.0,1.0,64,0.00,,,0.00,0,Wunderground v.1.15,2013-04-11 23:50:00,
2013-04-11 20:00:00,71.3,58.5,29.55,NE,47,0.0,1.0,64,0.00,,,0.00,0,Wunderground v.1.15,2013-04-12 00:00:00,
2013-04-11 20:10:00,70.8,58.9,29.55,NE,47,0.0,1.0,66,0.00,,,0.00,0,Wunderground v.1.15,2013-04-12 00:10:00,
2013-04-11 20:20:00,70.2,58.7,29.54,NE,47,0.0,0.0,67,0.00,,,0.00,0,Wunderground v.1.15,2013-04-12 00:20:00,
2013-04-11 20:30:00,69.5,58.1,29.54,NE,47,0.0,0.0,67,0.00,,,0.00,0,Wunderground v.1.15,2013-04-12 00:30:00,
2013-04-11 20:50:00,68.1,57.5,29.52,NE,47,0.0,0.0,69,0.00,,,0.00,0,Wunderground v.1.15,2013-04-12 00:50:00,
2013-04-11 21:00:00,67.5,57.0,29.53,NE,47,0.0,0.0,69,0.00,,,0.00,0,Wunderground v.1.15,2013-04-12 01:00:00,
2013-04-11 21:20:00,66.6,56.9,29.53,NE,47,0.0,0.0,71,0.00,,,0.00,0,Wunderground v.1.15,2013-04-12 01:20:00,
2013-04-11 21:30:00,66.0,56.7,29.53,NE,47,0.0,0.0,72,0.00,,,0.00,0,Wunderground v.1.15,2013-04-12 01:30:00,
2013-04-11 21:41:00,65.2,56.7,29.53,NE,47,0.0,0.0,74,0.00,,,0.00,0,Wunderground v.1.15,2013-04-12 01:41:00,
2013-04-11 21:50:00,64.7,56.6,29.52,NE,47,0.0,0.0,75,0.00,,,0.00,0,Wunderground v.1.15,2013-04-12 01:50:00,
2013-04-11 22:00:00,64.1,56.4,29.52,NE,47,0.0,0.0,76,0.00,,,0.00,0,Wunderground v.1.15,2013-04-12 02:00:00,
2013-04-11 22:20:00,63.3,56.3,29.53,ENE,69,0.0,0.0,78,0.00,,,0.00,0,Wunderground v.1.15,2013-04-12 02:20:00,
2013-04-11 22:30:00,62.9,55.9,29.52,SE,125,0.0,1.0,78,0.00,,,0.00,0,Wunderground v.1.15,2013-04-12 02:30:00,
2013-04-11 22:40:00,62.7,56.1,29.52,SE,128,0.0,0.0,79,0.00,,,0.00,0,Wunderground v.1.15,2013-04-12 02:40:00,
2013-04-11 22:50:00,62.9,56.3,29.53,SE,128,0.0,0.0,79,0.00,,,0.00,0,Wunderground v.1.15,2013-04-12 02:50:00,
2013-04-11 23:00:00,63.2,56.2,29.54,SE,128,0.0,0.0,78,0.00,,,0.00,0,Wunderground v.1.15,2013-04-12 03:00:00,
2013-04-11 23:10:00,63.8,56.8,29.54,SE,128,0.0,1.0,78,0.00,,,0.00,0,Wunderground v.1.15,2013-04-12 03:10:00,
2013-04-11 23:20:00,64.6,56.1,29.55,SE,137,1.0,1.0,74,0.00,,,0.00,0,Wunderground v.1.15,2013-04-12 03:20:00,
2013-04-11 23:30:00,65.6,56.3,29.56,WNW,297,1.0,1.0,72,0.00,,,0.00,0,Wunderground v.1.15,2013-04-12 03:30:00,
2013-04-11 23:40:00,68.5,59.9,29.57,NW,313,3.0,3.0,74,0.00,,,0.00,0,Wunderground v.1.15,2013-04-12 03:40:00,
2013-04-11 23:50:00,69.5,60.5,29.57,NW,321,1.0,2.0,73,0.00,,,0.00,0,Wunderground v.1.15,2013-04-12 03:50:00,